This is the latest recevied weather packets stored in our database for station/object W8AN. If no packets are shown the sender has not sent any weather packets the latest 10 day(s).
| Time | Temp. | Humidity | Pressure | Rain* | Wind** | Luminosity | Snow |
|---|---|---|---|---|---|---|---|
| 1777648324 | 5.56° C | 83% | 4268.3 hPa | 0 mm | - | 120 W/m² | - |
| 1777648021 | 5.56° C | 83% | 4268 hPa | 0 mm | - | 218 W/m² | - |
| 1777647717 | 5.56° C | 83% | 4267.8 hPa | 0 mm | - | 190 W/m² | - |
| 1777647413 | 5° C | 84% | 4267.7 hPa | 0 mm | - | 146 W/m² | - |
| 1777647111 | 5° C | 84% | 4267.6 hPa | 0 mm | - | 137 W/m² | - |
| 1777646807 | 5° C | 84% | 4267.8 hPa | 0 mm | - | 122 W/m² | - |
| 1777646502 | 5° C | 85% | 4267.8 hPa | 1.78 mm | - | 108 W/m² | - |
| 1777646199 | 5° C | 85% | 4267.7 hPa | 1.78 mm | - | 79 W/m² | - |
| 1777645897 | 5° C | 85% | 4267.8 hPa | 0 mm | - | 90 W/m² | - |
| 1777645593 | 5° C | 85% | 4267.6 hPa | 0 mm | - | 83 W/m² | - |
| 1777645289 | 5° C | 85% | 4267.9 hPa | 1.27 mm | - | 73 W/m² | - |
| 1777644985 | 5° C | 85% | 4267.7 hPa | 1.27 mm | - | 58 W/m² | - |
| 1777644683 | 5° C | 84% | 4267.9 hPa | 1.78 mm | - | 72 W/m² | - |
| 1777644379 | 5° C | 84% | 4267.8 hPa | 1.78 mm | - | 64 W/m² | - |
| 1777644076 | 5° C | 84% | 4267.9 hPa | 1.27 mm | - | 52 W/m² | - |
| 1777643772 | 5° C | 84% | 4267.9 hPa | 1.27 mm | - | 56 W/m² | - |
| 1777643470 | 5° C | 84% | 4268 hPa | 1.78 mm | - | 61 W/m² | - |
| 1777643166 | 5° C | 84% | 4267.7 hPa | 1.78 mm | - | 57 W/m² | - |
| 1777642863 | 5° C | 84% | 4267.8 hPa | 1.27 mm | - | 44 W/m² | - |
| 1777642560 | 5° C | 84% | 4267.8 hPa | 1.27 mm | - | 51 W/m² | - |
| 1777642256 | 5° C | 84% | 4267.7 hPa | 0 mm | - | 35 W/m² | - |
| 1777641953 | 5° C | 85% | 4267.5 hPa | 0 mm | - | 36 W/m² | - |
| 1777641649 | 5° C | 85% | 4267.7 hPa | 0 mm | - | 31 W/m² | - |
| 1777641344 | 5° C | 84% | 4267.5 hPa | 0 mm | - | 39 W/m² | - |
| 1777641040 | 5° C | 84% | 4267.4 hPa | 0 mm | - | 42 W/m² | - |
* Rain latest hour (hover to see other rain measurements)
** Current wind speed in m/s (hover to see current wind gust speed)